| time (UTC) | temp F | wind direction | speed MPH | gust MPH | rain 1hr in | rain 24hr in | rain mn in | humidity % | barometer mb |
| 20260510171506 | 64 | 0.0 | 10.0 | 0.00 | 0.00 | 0.00 | 37 | 1018.7 | |
| 20260510170003 | 64 | 0.0 | 10.0 | 0.00 | 0.00 | 0.00 | 39 | 1018.9 | |
| 20260510164502 | 63 | 0.0 | 13.0 | 0.00 | 0.00 | 0.00 | 37 | 1018.6 | |
| 20260510163107 | 63 | 0.0 | 11.0 | 0.00 | 0.00 | 0.00 | 36 | 1018.3 | |
| 20260510161557 | 63 | 0.0 | 9.0 | 0.00 | 0.00 | 0.00 | 42 | 1018.1 | |
| 20260510160055 | 62 | 0.0 | 9.0 | 0.00 | 0.00 | 0.00 | 38 | 1018.1 | |
| 20260510154557 | 62 | 0.0 | 5.0 | 0.00 | 0.00 | 0.00 | 39 | 1017.9 | |
| 20260510153051 | 61 | 0.0 | 8.0 | 0.00 | 0.00 | 0.00 | 42 | 1018.0 | |
| 20260510151552 | 61 | 0.0 | 6.0 | 0.00 | 0.00 | 0.00 | 40 | 1018.1 | |
| 20260510150054 | 61 | 0.0 | 8.0 | 0.00 | 0.00 | 0.00 | 43 | 1018.2 | |
| 20260510144603 | 60 | 0.0 | 6.0 | 0.00 | 0.00 | 0.00 | 45 | 1018.0 | |
| 20260510143047 | 59 | 0.0 | 9.0 | 0.00 | 0.00 | 0.00 | 44 | 1017.9 | |
| 20260510141538 | 58 | 0.0 | 9.0 | 0.00 | 0.00 | 0.00 | 45 | 1017.8 | |
| 20260510140033 | 56 | 0.0 | 10.0 | 0.00 | 0.00 | 0.00 | 48 | 1017.6 | |
| 20260510134530 | 56 | 0.0 | 8.0 | 0.00 | 0.00 | 0.00 | 54 | 1017.6 | |
| 20260510133028 | 54 | 0.0 | 6.0 | 0.00 | 0.00 | 0.00 | 60 | 1017.5 | |
| 20260510131522 | 53 | 0.0 | 8.0 | 0.00 | 0.00 | 0.00 | 63 | 1017.4 | |
| 20260510130018 | 51 | 0.0 | 7.0 | 0.00 | 0.00 | 0.00 | 67 | 1017.3 | |
| 20260510124513 | 49 | 0.0 | 8.0 | 0.00 | 0.00 | 0.00 | 71 | 1017.2 | |
| 20260510123010 | 48 | 0.0 | 7.0 | 0.00 | 0.00 | 0.00 | 75 | 1017.0 | |
| 20260510121508 | 46 | 0.0 | 7.0 | 0.00 | 0.00 | 0.00 | 77 | 1016.8 | |
| 20260510120005 | 44 | 0.0 | 7.0 | 0.00 | 0.00 | 0.00 | 83 | 1016.3 | |
| 20260510114505 | 43 | 0.0 | 6.0 | 0.00 | 0.00 | 0.00 | 87 | 1016.3 | |
| 20260510113001 | 42 | 0.0 | 3.0 | 0.00 | 0.00 | 0.00 | 88 | 1016.0 | |
| 20260510111608 | 41 | 0.0 | 3.0 | 0.00 | 0.00 | 0.00 | 89 | 1015.6 | |
| 20260510110058 | 41 | 0.0 | 5.0 | 0.00 | 0.00 | 0.00 | 88 | 1015.3 | |
| 20260510104611 | 41 | 0.0 | 5.0 | 0.00 | 0.00 | 0.00 | 87 | 1015.2 | |
| 20260510103053 | 41 | 0.0 | 5.0 | 0.00 | 0.00 | 0.00 | 87 | 1014.9 | |
| 20260510101550 | 41 | 0.0 | 7.0 | 0.00 | 0.00 | 0.00 | 87 | 1014.6 | |
| 20260510100047 | 41 | 0.0 | 5.0 | 0.00 | 0.00 | 0.00 | 87 | 1014.3 | |
| 20260510094546 | 42 | 0.0 | 3.0 | 0.00 | 0.00 | 0.00 | 87 | 1014.2 | |
| 20260510093044 | 42 | 0.0 | 3.0 | 0.00 | 0.00 | 0.00 | 87 | 1014.1 | |
| 20260510091541 | 42 | 0.0 | 4.0 | 0.00 | 0.00 | 0.00 | 87 | 1013.9 | |
| 20260510090040 | 43 | 0.0 | 4.0 | 0.00 | 0.00 | 0.00 | 88 | 1013.6 | |
| 20260510084537 | 43 | 0.0 | 6.0 | 0.00 | 0.00 | 0.00 | 89 | 1013.4 | |
| 20260510083035 | 43 | 0.0 | 7.0 | 0.00 | 0.00 | 0.00 | 89 | 1013.3 | |
| 20260510081537 | 43 | 0.0 | 4.0 | 0.00 | 0.00 | 0.00 | 88 | 1013.3 | |
| 20260510080033 | 43 | 0.0 | 3.0 | 0.00 | 0.00 | 0.00 | 88 | 1013.1 | |
| 20260510074533 | 44 | 0.0 | 0.0 | 0.00 | 0.00 | 0.00 | 88 | 1012.8 | |
| 20260510073025 | 44 | 0.0 | 0.0 | 0.00 | 0.00 | 0.00 | 88 | 1012.5 | |
| 20260510071522 | 44 | 0.0 | 0.0 | 0.00 | 0.00 | 0.00 | 87 | 1012.4 | |
| 20260510070022 | 45 | 0.0 | 0.0 | 0.00 | 0.00 | 0.00 | 86 | 1012.0 | |
| 20260510064518 | 45 | 0.0 | 1.0 | 0.00 | 0.00 | 0.00 | 85 | 1011.9 | |
| 20260510063017 | 45 | 0.0 | 0.0 | 0.00 | 0.00 | 0.00 | 85 | 1011.9 | |
| 20260510061525 | 45 | 0.0 | 0.0 | 0.00 | 0.00 | 0.00 | 84 | 1011.8 | |
| 20260510060030 | 46 | 0.0 | 2.0 | 0.00 | 0.00 | 0.00 | 83 | 1011.8 | |
| 20260510054510 | 46 | 0.0 | 0.0 | 0.00 | 0.00 | 0.00 | 81 | 1011.6 | |
| 20260510053006 | 47 | 0.0 | 0.0 | 0.00 | 0.00 | 0.00 | 81 | 1011.3 | |
| 20260510051504 | 47 | 0.0 | 1.0 | 0.00 | 0.00 | 0.00 | 81 | 1011.2 | |
| 20260510050101 | 48 | 0.0 | 1.0 | 0.00 | 0.00 | 0.00 | 79 | 1010.8 | |
| 20260510044557 | 49 | 0.0 | 2.0 | 0.00 | 0.00 | 0.00 | 79 | 1010.4 | |
| 20260510043142 | 49 | 0.0 | 2.0 | 0.00 | 0.00 | 0.00 | 78 | 1010.3 | |
| 20260510041555 | 51 | 0.0 | 1.0 | 0.00 | 0.00 | 0.00 | 79 | 1010.2 | |
| 20260510040052 | 52 | 0.0 | 2.0 | 0.00 | 0.00 | 0.00 | 78 | 1010.0 | |
| 20260510034554 | 52 | 0.0 | 2.0 | 0.00 | 0.00 | 0.00 | 70 | 1009.9 | |
| 20260510033050 | 53 | 0.0 | 4.0 | 0.00 | 0.00 | 0.00 | 65 | 1009.7 | |
| 20260510031619 | 54 | 0.0 | 4.0 | 0.00 | 0.00 | 0.00 | 63 | 1009.5 | |
| 20260510030044 | 55 | 0.0 | 5.0 | 0.00 | 0.00 | 0.00 | 61 | 1009.3 | |
| 20260510024545 | 56 | 0.0 | 0.0 | 0.00 | 0.00 | 0.00 | 58 | 1009.2 | |
| 20260510023051 | 57 | 0.0 | 3.0 | 0.00 | 0.00 | 0.00 | 58 | 1009.0 | |
| 20260510021543 | 58 | 0.0 | 5.0 | 0.00 | 0.00 | 0.00 | 56 | 1008.7 | |
| 20260510020037 | 58 | 0.0 | 8.0 | 0.00 | 0.00 | 0.00 | 55 | 1008.3 | |
| 20260510014535 | 59 | 0.0 | 5.0 | 0.00 | 0.00 | 0.00 | 54 | 1008.1 | |
| 20260510013034 | 60 | 0.0 | 7.0 | 0.00 | 0.00 | 0.00 | 53 | 1007.6 | |
| 20260510011528 | 62 | 0.0 | 11.0 | 0.00 | 0.00 | 0.00 | 51 | 1007.1 | |
| 20260510010029 | 65 | 0.0 | 12.0 | 0.00 | 0.00 | 0.00 | 48 | 1006.6 | |
| 20260510004523 | 67 | 0.0 | 12.0 | 0.00 | 0.00 | 0.00 | 51 | 1006.1 | |
| 20260510003024 | 67 | 0.0 | 18.0 | 0.00 | 0.00 | 0.00 | 49 | 1005.8 | |
| 20260510001522 | 68 | 0.0 | 16.0 | 0.00 | 0.00 | 0.00 | 47 | 1005.4 | |
| 20260510000021 | 69 | 0.0 | 18.0 | 0.00 | 0.00 | 0.00 | 46 | 1005.1 | |
| 20260509234521 | 69 | 0.0 | 22.0 | 0.00 | 0.00 | 0.00 | 46 | 1005.2 | |
| 20260509233022 | 70 | 0.0 | 23.0 | 0.00 | 0.00 | 0.00 | 44 | 1005.1 | |
| 20260509231520 | 70 | 0.0 | 19.0 | 0.00 | 0.00 | 0.00 | 43 | 1005.0 | |
| 20260509230019 | 71 | 0.0 | 22.0 | 0.00 | 0.00 | 0.00 | 42 | 1004.8 | |
| 20260509224520 | 71 | 0.0 | 20.0 | 0.00 | 0.00 | 0.00 | 40 | 1004.6 | |
| 20260509223017 | 71 | 0.0 | 22.0 | 0.00 | 0.00 | 0.00 | 41 | 1004.5 | |
| 20260509221517 | 71 | 0.0 | 22.0 | 0.00 | 0.00 | 0.00 | 41 | 1004.4 | |
| 20260509220015 | 71 | 0.0 | 33.0 | 0.00 | 0.00 | 0.00 | 39 | 1004.4 | |
| 20260509214515 | 71 | 0.0 | 22.0 | 0.00 | 0.00 | 0.00 | 40 | 1004.3 | |
| 20260509213014 | 70 | 0.0 | 14.0 | 0.00 | 0.00 | 0.00 | 43 | 1004.1 | |
| 20260509211522 | 70 | 0.0 | 15.0 | 0.00 | 0.00 | 0.00 | 44 | 1004.2 | |
| 20260509210013 | 71 | 0.0 | 30.0 | 0.00 | 0.00 | 0.00 | 44 | 1004.1 | |
| 20260509204512 | 72 | 0.0 | 32.0 | 0.00 | 0.00 | 0.00 | 43 | 1004.3 | |
| 20260509203024 | 73 | 0.0 | 25.0 | 0.00 | 0.00 | 0.00 | 41 | 1003.8 | |
| 20260509201508 | 74 | 0.0 | 20.0 | 0.00 | 0.00 | 0.00 | 43 | 1003.8 | |
| 20260509200006 | 72 | 0.0 | 23.0 | 0.00 | 0.00 | 0.00 | 46 | 1004.0 | |
| 20260509194505 | 72 | 0.0 | 17.0 | 0.00 | 0.00 | 0.00 | 46 | 1004.1 | |
| 20260509193005 | 71 | 0.0 | 14.0 | 0.00 | 0.00 | 0.00 | 52 | 1004.2 | |
| 20260509191504 | 71 | 0.0 | 19.0 | 0.00 | 0.00 | 0.00 | 50 | 1004.3 | |
| 20260509190002 | 71 | 0.0 | 20.0 | 0.00 | 0.00 | 0.00 | 48 | 1004.2 | |
| 20260509184601 | 72 | 0.0 | 21.0 | 0.00 | 0.00 | 0.00 | 50 | 1004.0 | |
| 20260509183059 | 73 | 0.0 | 22.0 | 0.00 | 0.00 | 0.00 | 53 | 1003.9 | |
| 20260509181609 | 72 | 0.0 | 23.0 | 0.00 | 0.00 | 0.00 | 56 | 1003.9 | |
| 20260509180053 | 72 | 0.0 | 19.0 | 0.00 | 0.00 | 0.00 | 58 | 1004.0 | |
| 20260509174553 | 71 | 0.0 | 20.0 | 0.00 | 0.00 | 0.00 | 60 | 1004.2 | |
| 20260509173052 | 71 | 0.0 | 17.0 | 0.00 | 0.00 | 0.00 | 61 | 1004.0 |